Regional Weather Roundup
Issued by NWS Upton, NY

Current Version | Previous Version | Graphics & Text | Print | Product List | Glossary Off
Versions: 1 2 3 4 5 6 7 8 9 10 11 12 13 14 15 16 17 18 19 20 21 22 23 24 25 26 27

000
ASUS41 KOKX 271904
RWROKX

REGIONAL WEATHER ROUNDUP
NATIONAL WEATHER SERVICE NEW YORK NY
300 PM EDT WED JUL 27 2016

NOTE: "FAIR" INDICATES FEW OR NO CLOUDS BELOW 12,000 FEET WITH NO
SIGNIFICANT WEATHER AND/OR OBSTRUCTIONS TO VISIBILITY.

NYZ071-072-176-178-NJZ106-104-272000-
NEW YORK CITY METRO AREA

CITY           SKY/WX    TMP DP  RH WIND       PRES   REMARKS
Central Park   PTSUNNY   88  60  38 W3        29.95S
LaGuardia APRT MOSUNNY   93  59  31 W10       29.91S HX  92
Kennedy INTL   MOSUNNY   87  62  43 S9        29.93F
Newark/Liberty MOSUNNY   91  60  35 SW8       29.91F HX  90
Bronx Bot Gard   N/A     88  59  37 W3        29.92F
Wall St Helipt CLEAR     90  66  45 W3        29.92F HX  92
Teterboro      PTSUNNY   92  60  34 NW9       29.90F HX  91
$$

NYZ177-179-078>081-272000-
LONG ISLAND NEW YORK

CITY           SKY/WX    TMP DP  RH WIND       PRES   REMARKS
Farmingdale    SUNNY     88  64  44 S12       29.92F
MacArthur/ISP  MOSUNNY   87  64  46 S8        29.92F
Shirley        SUNNY     86  63  45 MISG      29.93F
Riverhead      NOT AVBL
Westhampton    SUNNY     86  60  41 S12G17    29.95S
Southhampton     N/A     82  64  54 S9        29.90S
Bridgehampton    N/A     86  63  45 SW3       29.93S
East Hampton   FAIR      84  61  45 S8        29.93S
Montauk          N/A     83  63  50 VRB7      29.94F
$$

NYZ052-065-067-272000-
HUDSON VALLEY

CITY           SKY/WX    TMP DP  RH WIND       PRES   REMARKS
White Plains   MOSUNNY   88  60  38 NW7       29.93F
Newburgh       MOSUNNY   88  64  45 NW6       29.95F
Montgomery     SUNNY     89  60  37 N8        29.93F
Poughkeepsie   MOSUNNY   91  61  36 W9        29.91F HX  91
Albany         MOSUNNY   89  56  32 W7G17     29.92F
$$

NJZ001-105-106-008-010-013-015-019>022-104-272000-
NEW JERSEY

CITY           SKY/WX    TMP DP  RH WIND       PRES   REMARKS
Newark/Liberty MOSUNNY   91  60  35 SW8       29.91F HX  90
Teterboro      PTSUNNY   92  60  34 NW9       29.90F HX  91
Caldwell       MOSUNNY   91  60  35 VRB6      29.92F HX  90
Morristown     MOSUNNY   90  61  37 W6        29.93F
Somerville     MOSUNNY   91  63  39 VRB5      29.91F HX  92
Linden         FAIR      90  60  35 CALM      29.93F
Sussex         SUNNY     88  59  37 NW6       29.95F
Abdover          N/A     87  61  41 VRB3      29.95F
Trenton        SUNNY     89  63  41 VRB3      29.93S HX  90
Millville      MOSUNNY   81  74  79 E5        29.92S
Atlantic City  CLOUDY    80  73  79 E9        29.93F
Wrightstown    MOSUNNY   89  67  48 NE5       29.90S HX  92
Toms River     MOSUNNY   87  69  54 SE8       29.94S HX  91
Belmar         SUNNY     87  66  49 SE9       29.95S
$$

PAZ047>061-062-071-272000-
EASTERN PENNSYLVANIA

CITY           SKY/WX    TMP DP  RH WIND       PRES   REMARKS
Philadelphia   MOSUNNY   92  65  40 SE7       29.92S HX  94
Allentown      MOSUNNY   88  62  41 CALM      29.94F
Scranton       MOSUNNY   88  58  36 VRB5      29.97F
$$

CTZ002-004>006-009-010-012-RIZ004-006-007-MAZ004-011-015-272000-
SOUTHERN NEW ENGLAND
 IN CT

CITY           SKY/WX    TMP DP  RH WIND       PRES   REMARKS
Bradley INTL   PTSUNNY   91  55  29 W8        29.90F
Hartford       PTSUNNY   93  57  29 NW6       29.88F HX  91
Danbury        MOSUNNY   86  60  41 SW5       29.94F
Wtrbury/Oxford NOT AVBL
Bridgeport     SUNNY     88  63  43 S10       29.92F
Meriden        SUNNY     90  57  32 VRB6      29.90F
New Haven      MOSUNNY   85  63  47 SW8       29.92F
Chester        FAIR      88  63  42 VRB7G14   29.92F
Groton         SUNNY     81  66  60 S13       29.91F
Wilimantic     NOT AVBL

 IN RI

CITY           SKY/WX    TMP DP  RH WIND       PRES   REMARKS
Providence     MOSUNNY   87  63  44 S16       29.89F
Block Island   SUNNY     82  65  56 SW14      29.93F
Westerly       SUNNY     86  59  39 S13       29.93F
 IN MA

CITY           SKY/WX    TMP DP  RH WIND       PRES   REMARKS
Boston         MOSUNNY   83  62  49 E15       29.88F
Worchester     PTSUNNY   86  53  32 MISG      29.93F
Westfield      SUNNY     93  55  27 NW8       29.89F HX  91
Provincetown   SUNNY     83  64  52 NE8       29.91F
Nantucket      SUNNY     79  65  62 S8        29.92F
$$

ANZ330-335-338-340-345-350-353-355-272000-
COASTAL MARINE OBSERVATIONS


STATION/POSITION TIME  SKY/WX   TEMP    WIND        PRES    VSBY  WAVE
                                AIR SEA DIR/SP/G                  HT/PER
                 (UTC)          (F)     (DEG/KT/KT) (MB)    (MI)  (FT/S)
NY HARB ENTRANCE 1750            78 79  170/  4/  6 1013.6          2/ 6
20S FIRE ISLAND  1750            76 78   60/  2/  4 1013.7          2/ 6
GREAT SOUTH BAY  1730            78 83  170/  8/ 10   N/A
23 SSW MONTAUK P 1750            77 73  200/  4/  4 1014.4          2/ 7
15 E BARNEGAT LI 1822               79                N/A           2/ 5
HUDSON CANYON    1750            79 80              1013.7          2/ 6
KINGS POINT      1800            85 74              1013.1
EXECUTION ROCKS  1800            81      80/  6/  6   N/A
CENTRAL LI SOUND NOT AVBL
EASTERN LI SOUND 1800            76 69  200/  6/  8   N/A
ROBBINS REEF     1800            81     170/ 12/ 13 1012.6
$$


>>>>>>>>>>>>>>>>>>>>>>>>>>>> KEY <<<<<<<<<<<<<<<<<<<<<<<<<<<
>                                                          <
>     SKY/WX - Sky Condition/Present Weather               <
>     TMP    - Temperature in Fahrenheit                   <
>     DP     - Dew Point in Fahrenheit                     <
>     RH     - Relative Humidity in Percent                <
>     WIND   - Direction (from) and Speed in MPH           <
>     PRES   - Mean Sea Level Pressure (inches of Hg)      <
>     WCI    - Wind Chill Index                            <
>     VSB    - VISIBILITY IN MILES                         <
>     HX     - HEAT INDEX                                  <
>     TC     - TEMPERATURE IN CELSIUS                      <
>     VRB    - VARIABLE WIND DIRECTION                     <
>                                                          <
>>>>>>>>>>>>>>>>>>>>>>>>>>>> KEY <<<<<<<<<<<<<<<<<<<<<<<<<<<




USA.gov is the U.S. government's official web portal to all federal, state and local government web resources and services.